Regional Weather Roundup
Issued by NWS Jackson, KY

Home | Current Version | Previous Version | Graphics & Text | Print | Product List | Glossary On
Versions: 1 2 3 4 5 6 7 8 9 10 11 12 13 14 15 16 17 18 19 20 21 22 23 24 25 26 27 28 29 30 31 32 33 34 35 36 37 38 39 40 41 42 43 44 45 46 47 48 49 50
000
ASUS43 KJKL 282119
RWRJKL

EAST KENTUCKY HOURLY WEATHER ROUNDUP
NATIONAL WEATHER SERVICE JACKSON KY
500 PM EDT MON JUL 28 2014

NOTE: "FAIR" INDICATES FEW OR NO CLOUDS BELOW 12,000 FEET WITH
NO SIGNIFICANT WEATHER AND/OR OBSTRUCTIONS TO VISIBILITY.

* THESE REPORTS ARE NOT UNDER NWS QUALITY CONTROL AND MAY NOT
  REPORT WEATHER SUCH AS PRECIPITATION AND FOG.

KYZ079-080-083-085-087-088-110-112-115-119-120-282200
...EASTERN KENTUCKY...

CITY           SKY/WX    TMP DP  RH WIND       PRES   REMARKS
JACKSON        PTSUNNY   71  58  63 NW8       29.99R
LONDON         PTSUNNY   77  60  55 N15       29.99R
SOMERSET*      PTSUNNY   77  59  53 NW10G17   29.99S
MONTICELLO*    MOSUNNY   80  63  56 N9        30.00S
WILLIAMSBURG*  MOSUNNY   73  63  68 NW8       29.98S
MIDDLESBORO*   CLOUDY    74  60  63 N7        29.98S
HARLAN APT*    MOCLDY    75  55  50 MISG      29.98R
BLACK MTN*       N/A     59  57  94 NW6         N/A
PIKEVILLE APT* CLOUDY    70  61  73 NW8       29.98R
BIG SANDY*     CLOUDY    70  60  71 N5        29.97S
MOREHEAD APT*  CLOUDY    70  61  73 VRB7      30.00S
ASHLAND*       PTSUNNY   72  59  64 N5        29.92S
$$

KYZ035-036-041-042-044-050-067-078-099-282200
...CENTRAL KENTUCKY...

CITY           SKY/WX    TMP DP  RH WIND       PRES   REMARKS
MT STERLING*   CLOUDY    70  61  73 NW7       30.01S
FLEMING/MASON* CLOUDY    70  61  73 W10       29.99R
DANVILLE*      PTSUNNY   73  59  60 N8        30.01S
RICHMOND*      CLOUDY    73  59  60 NW10      29.99S
LEXINGTON      CLOUDY    72  59  63 NW9       30.01R
FRANKFORT      CLOUDY    72  59  63 NW10      30.00S
$$

KYZ091>093-OHZ055-061-077-WVZ005-015-034-035-042-282200
...SOUTHERN OHIO/WEST VIRGINIA...

CITY           SKY/WX    TMP DP  RH WIND       PRES   REMARKS
COVINGTON      PTSUNNY   73  59  61 W17       29.98R
COLUMBUS       PTSUNNY   75  54  47 N12       29.91S
DAYTON         PTSUNNY   73  55  53 NW16      29.97S
WILMINGTON     MOSUNNY   74  54  49 NW14      29.94S
HUNTINGTON     CLOUDY    70  59  68 NW6       29.93S
CHARLESTON     CLOUDY    71  61  70 W12G17    29.92S
PINEVILLE*     CLOUDY    68  64  88 MISG      30.00R
BECKLEY        CLOUDY    66  55  67 NW14      29.96R
BLUEFIELD      CLOUDY    68  56  65 W8        29.98R
$$

VAZ002-007-008-TNZ017-027-036-066-071-282200
...SOUTHWEST VIRGINIA/EAST TENNESSEE...

CITY           SKY/WX    TMP DP  RH WIND       PRES   REMARKS
WISE*          PTSUNNY   68  54  60 NW7       30.02S
JONESVILLE*    CLEAR     77  59  53 NW5       29.98F
ABINGDON*      CLOUDY    73  58  60 NW12G17   29.97S
BRISTOL        PTSUNNY   76  57  51 W12       29.95S
KNOXVILLE      PTSUNNY   79  60  52 VRB3      29.95S
OAK RIDGE      CLOUDY    81  58  45 VRB5      29.97S
CROSSVILLE     MOSUNNY   75  58  55 NW10      30.02F
NASHVILLE      PTSUNNY   82  59  45 N12G17    29.99F
$$

...KEY TO REMARKS...
VSB - VISIBILITY IN MILES
WCI - WIND CHILL INDEX
HX  - HEAT INDEX

$$



USA.gov is the U.S. government's official web portal to all federal, state and local government web resources and services.